This is the latest recevied weather packets stored in our database for station/object KD4UFD. If no packets are shown the sender has not sent any weather packets the latest 10 day(s).
| Time | Temp. | Humidity | Pressure | Rain* | Wind** | Luminosity | Snow |
|---|---|---|---|---|---|---|---|
| 1778016644 | 24.44° C | 49% | 1010.9 hPa | 0 mm | - | 219 W/m² | - |
| 1778016341 | 24.44° C | 47% | 1011 hPa | 0 mm | - | 230 W/m² | - |
| 1778016038 | 24.44° C | 49% | 1010.8 hPa | 0 mm | - | 247 W/m² | - |
| 1778015735 | 24.44° C | 46% | 1011 hPa | 0 mm | - | 280 W/m² | - |
| 1778015431 | 24.44° C | 46% | 1011.1 hPa | 0 mm | - | 342 W/m² | - |
| 1778015128 | 25° C | 45% | 1010.9 hPa | 0 mm | - | 212 W/m² | - |
| 1778014826 | 25° C | 47% | 1010.9 hPa | 0 mm | - | 424 W/m² | - |
| 1778014524 | 25° C | 43% | 1010.9 hPa | 0 mm | - | 461 W/m² | - |
| 1778014221 | 24.44° C | 45% | 1010.9 hPa | 0 mm | - | 339 W/m² | - |
| 1778013918 | 25° C | 45% | 1011.1 hPa | 0 mm | - | 214 W/m² | - |
| 1778013615 | 25° C | 44% | 1011.1 hPa | 0 mm | - | 551 W/m² | - |
| 1778013312 | 25.56° C | 44% | 1011.3 hPa | 0 mm | - | 565 W/m² | - |
| 1778013009 | 25.56° C | 46% | 1011.5 hPa | 0 mm | - | 629 W/m² | - |
| 1778012705 | 25° C | 46% | 1011.6 hPa | 0 mm | - | 563 W/m² | - |
| 1778012401 | 24.44° C | 48% | 1011.8 hPa | 0 mm | - | 709 W/m² | - |
| 1778012098 | 23.89° C | 48% | 1011.9 hPa | 0 mm | - | 396 W/m² | - |
| 1778011795 | 23.89° C | 50% | 1011.7 hPa | 0 mm | - | 542 W/m² | - |
| 1778011493 | 23.33° C | 49% | 1011.9 hPa | 0 mm | - | 317 W/m² | - |
| 1778011189 | 23.89° C | 47% | 1012 hPa | 0 mm | - | 274 W/m² | - |
| 1778010886 | 23.33° C | 48% | 1011.9 hPa | 0 mm | - | 369 W/m² | - |
| 1778010583 | 23.33° C | 50% | 1011.8 hPa | 0 mm | - | 291 W/m² | - |
| 1778010281 | 22.78° C | 49% | 1012.2 hPa | 0 mm | - | 242 W/m² | - |
| 1778009981 | 23.33° C | 47% | 1012.1 hPa | 0 mm | - | 234 W/m² | - |
| 1778009678 | 23.33° C | 48% | 1012.1 hPa | 0 mm | - | 347 W/m² | - |
| 1778009376 | 23.33° C | 50% | 1012.1 hPa | 0 mm | - | 325 W/m² | - |
* Rain latest hour (hover to see other rain measurements)
** Current wind speed in m/s (hover to see current wind gust speed)